Home   Weather   Forchheim   Past weeks

Flag for Germany Past Weather in Forchheim, Bavaria, Germany — Yesterday and Last 2 Weeks

Now
61 °F

Passing clouds.


Feels Like: 61 °F
Forecast: 56 / 68 °F
Wind: 9 mph from Southwest

Location: Nuernberg

Current Time: Aug 18, 2017 at 11:47:30 pm

Latest Report: Aug 18, 2017 at 11:20 pm


Visibility: N/A

Pressure: 30.04 "Hg

Humidity: 100%

Dew Point: 61 °F

Location of ForchheimLocation

Past Weather in Forchheim — Graph

°F

Forchheim Temperature Yesterday

Maximum temperature yesterday: 81 °F (at 3:50 pm)
Minimum temperature yesterday: 61 °F (at 12:50 am)
Average temperature yesterday: 71 °F

High & Low Weather Summary for the Past Weeks

 TemperatureHumidityPressure
High86 °F (Aug 15, 2:50 pm)100% (Aug 6, 5:53 am)30.21 "Hg (Aug 6, 5:53 am)
Low48 °F (Aug 7, 4:20 am)39% (Aug 7, 5:20 pm)29.86 "Hg (Aug 8, 9:50 am)
Average66 °F76%30.07 "Hg
* Reported Aug 3 10:20 pm — Aug 18 10:20 pm, Forchheim. Weather by CustomWeather, © 2017

Note: Actual official high and low records may vary slightly from our data, if they occured in-between our weather recording intervals... More about our weather records

Advertising

Forchheim Weather History for the Previous 24 Hours

Scroll right to see more
 ConditionsComfort  
Time TempWeatherWind HumidityBarometerVisibility
10:20 pm
Fri, Aug 18
61 °FPartly cloudy.2 mph100%29.98 "HgN/A
9:50 pm63 °FRain showers. Partly cloudy.3 mph94%29.98 "HgN/A
9:27 pm63 °FThunderstorms. Partly cloudy.9 mph94%29.95 "HgN/A
9:20 pm63 °FThunderstorms. Partly cloudy.15 mph94%30.01 "HgN/A
8:50 pm64 °FPartly cloudy.14 mph88%29.98 "HgN/A
8:20 pm66 °FSprinkles. Broken clouds.14 mph88%29.92 "HgN/A
7:50 pm66 °FSprinkles. Broken clouds.8 mph100%29.92 "HgN/A
7:29 pm66 °FMild.8 mph94%29.95 "HgN/A
7:20 pm64 °FThunderstorms. Broken clouds.5 mph100%29.89 "HgN/A
7:04 pm66 °FThundershowers. Partly sunny.6 mph94%29.86 "HgN/A
6:20 pm72 °FThunderstorms. Broken clouds.9 mph88%29.86 "HgN/A
5:52 pm81 °FThunderstorms. Scattered clouds.1 mph58%29.86 "HgN/A
5:20 pm81 °FScattered clouds.8 mph54%29.86 "HgN/A
4:50 pm82 °FPassing clouds.6 mph48%29.89 "HgN/A
4:20 pm84 °FPassing clouds.7 mph45%29.89 "HgN/A
3:50 pm84 °FPassing clouds.9 mph48%29.92 "HgN/A
3:20 pm82 °FPassing clouds.7 mph48%29.95 "HgN/A
2:50 pm84 °FPassing clouds.9 mph45%29.95 "HgN/A
2:20 pm84 °FPassing clouds.10 mph45%29.95 "HgN/A
1:50 pm82 °FPassing clouds.7 mph51%29.98 "HgN/A
1:20 pm82 °FPartly sunny.8 mph48%29.98 "HgN/A
12:50 pm81 °FPartly sunny.6 mph58%29.98 "HgN/A
12:20 pm81 °FBroken clouds.7 mph54%30.01 "HgN/A
11:50 am79 °FScattered clouds.9 mph61%30.01 "HgN/A
11:20 am79 °FPassing clouds.9 mph61%30.01 "HgN/A
10:50 am77 °FPassing clouds.8 mph65%30.04 "HgN/A
10:20 am75 °FPassing clouds.8 mph69%30.04 "HgN/A
10:00 am73 °FPassing clouds.6 mph74%30.04 "HgN/A
9:20 am72 °FPassing clouds.5 mph78%30.04 "HgN/A
8:50 am70 °FPassing clouds.5 mph83%30.04 "HgN/A
8:20 am68 °FPassing clouds.3 mph88%30.04 "HgN/A
7:50 am64 °FFog.6 mph94%30.04 "HgN/A
7:20 am63 °FFog.6 mph94%30.04 "HgN/A
6:50 am61 °FFog.1 mph100%30.07 "HgN/A
6:20 am61 °FFog.3 mph94%30.07 "HgN/A
5:50 am63 °FClear.5 mph94%30.04 "Hg10 mi
5:20 am63 °FClear.5 mph94%30.04 "Hg10 mi
4:50 am63 °FClear.5 mph94%30.04 "Hg10 mi
4:20 am61 °FClear.3 mph100%30.04 "Hg10 mi
3:50 am63 °FClear.3 mph94%30.07 "Hg10 mi
3:20 am63 °FClear.5 mph94%30.07 "Hg10 mi
2:50 am63 °FClear.6 mph94%30.07 "Hg10 mi
2:20 am64 °FPassing clouds.3 mph94%30.07 "HgN/A
1:50 am64 °FClear.5 mph88%30.07 "Hg10 mi
1:20 am66 °FClear.1 mph83%30.09 "Hg10 mi
12:50 am66 °FClear.No wind88%30.09 "Hg10 mi
12:20 am66 °FClear.No wind83%30.09 "Hg10 mi
11:50 pm
Thu, Aug 17
68 °FClear.No wind78%30.09 "Hg10 mi
11:20 pm70 °FClear.No wind78%30.07 "Hg10 mi
Weather by CustomWeather, © 2017

See weather overviewHow to use our weather pages